Weather History for Waterloo, IA

Change the Weather History Date:

Wednesday, November 6, 2013

  Actual Average Record
Temperature  
Mean Temperature 35 °F 42 °F  
Max Temperature 45 °F 52 °F 75 °F (2001)
Min Temperature 25 °F 32 °F 5 °F (1991)
Degree Days  
Heating Degree Days 30 23  
Month to date heating degree days 145 132  
Since 1 July heating degree days 745 755  
Cooling Degree Days 0 0  
Month to date cooling degree days 0 0  
Year to date cooling degree days 837 799  
Moisture  
Dew Point 30 °F    
Average Humidity 71    
Maximum Humidity 100    
Minimum Humidity 41    
Precipitation  
Precipitation 0.08 in 0.07 in 1.68 in (2000)
Month to date precipitation 1.23 0.44  
Year to date precipitation 39.14 31.83  
Snow  
Snow T in 0.00 in 1.50 in (1896)
Month to date snowfall T 0.2  
Since 1 July snowfall 1.0 0.5  
Since 1 September snowfall 1.0 0.5  
Snow Depth 0.00 in    
Sea Level Pressure  
Sea Level Pressure 30.04 in    
Wind  
Wind Speed 13 mph (NW)    
Max Wind Speed 28 mph    
Max Gust Speed 32 mph    
Visibility 9 miles    
Events Rain , Snow    
T = Trace of Precipitation, MM = Missing Value Source: NWS Daily Summary

Daily Weather History Graph

Daily Weather History Graph

Search for Another Location

Airport:

Trip Planner

Search our weather history database for the weather conditions in past years. The results will help you decide how hot, cold, wet, or windy it might be!

Date:

Astronomy

Nov. 06, 2013 Rise Set
Actual Time 6:49 AM CST 4:56 PM CST
Civil Twilight 6:20 AM CST 5:25 PM CST
Nautical Twilight 5:46 AM CST 5:59 PM CST
Astronomical Twilight 5:13 AM CST 6:32 PM CST
Moon 10:07 AM CST (11/6) 7:59 PM CST (11/6)
Length of Visible Light 11h 05m
Length of Day
10h 06m
Waxing Crescent, 14% of the Moon is Illuminated
Nov 6
Waxing Crescent
Nov 9
First Quarter
Nov 17
Full
Nov 25
Last Quarter
Dec 2
New

Hourly Weather History & Observations

Time (CST) Temp. Windchill Dew Point Humidity Pressure Visibility Wind Dir Wind Speed Gust Speed Precip Events Conditions
12:04 AM 44.6 °F 39.7 °F 44.6 °F 100% 29.78 in 5.0 mi NNW 9.2 mph - 0.03 in Rain Light Rain
12:54 AM 42.1 °F 34.5 °F 41.0 °F 96% 29.82 in 6.0 mi NNW 15.0 mph - 0.06 in Rain Light Rain
1:54 AM 39.0 °F 29.9 °F 37.9 °F 96% 29.82 in 4.0 mi NNW 17.3 mph 26.5 mph 0.02 in Rain Light Rain
2:54 AM 37.0 °F 26.2 °F 36.0 °F 96% 29.85 in 4.0 mi NNW 21.9 mph 26.5 mph 0.00 in Snow Light Snow
3:06 AM 37.4 °F 27.8 °F 35.6 °F 93% 29.85 in 6.0 mi NNW 17.3 mph 25.3 mph 0.00 in Snow Light Snow
3:54 AM 37.0 °F 27.0 °F 35.1 °F 93% 29.87 in 10.0 mi NNW 18.4 mph 28.8 mph 0.00 in   Overcast
4:54 AM 37.0 °F 26.7 °F 35.1 °F 93% 29.92 in 9.0 mi NNW 19.6 mph 25.3 mph N/A   Overcast
5:11 AM 35.6 °F 24.5 °F 35.6 °F 100% 29.90 in 8.0 mi North 20.7 mph 27.6 mph N/A   Overcast
5:34 AM 35.6 °F 25.2 °F 33.8 °F 93% 29.88 in 10.0 mi North 18.4 mph 28.8 mph N/A   Overcast
5:54 AM 36.0 °F 26.0 °F 33.1 °F 89% 29.94 in 10.0 mi NNW 17.3 mph 25.3 mph N/A   Overcast
6:17 AM 35.6 °F 24.2 °F 33.8 °F 93% 29.92 in 10.0 mi NNW 21.9 mph 31.1 mph N/A   Overcast
6:54 AM 36.0 °F 25.3 °F 33.1 °F 89% 29.95 in 10.0 mi NNW 19.6 mph 25.3 mph N/A   Overcast
7:54 AM 36.0 °F 26.3 °F 32.0 °F 86% 29.99 in 10.0 mi NNW 16.1 mph - N/A   Overcast
8:54 AM 36.0 °F 27.1 °F 32.0 °F 86% 30.04 in 10.0 mi NNW 13.8 mph - N/A   Mostly Cloudy
9:54 AM 39.9 °F 30.5 °F 33.1 °F 77% 30.05 in 10.0 mi NNW 19.6 mph 26.5 mph N/A   Partly Cloudy
10:54 AM 39.9 °F 30.8 °F 30.9 °F 70% 30.08 in 10.0 mi NW 18.4 mph 27.6 mph N/A   Partly Cloudy
11:54 AM 42.1 °F 33.6 °F 28.0 °F 58% 30.09 in 10.0 mi NW 18.4 mph 25.3 mph N/A   Clear
12:54 PM 44.1 °F 35.9 °F 25.0 °F 47% 30.09 in 10.0 mi NW 19.6 mph 29.9 mph N/A   Clear
1:54 PM 45.0 °F 37.9 °F 25.0 °F 46% 30.12 in 10.0 mi NW 16.1 mph 24.2 mph N/A   Clear
2:54 PM 44.1 °F 37.4 °F 23.0 °F 43% 30.14 in 10.0 mi NNW 13.8 mph 23.0 mph N/A   Clear
3:54 PM 43.0 °F 37.2 °F 23.0 °F 45% 30.17 in 10.0 mi NW 10.4 mph 19.6 mph N/A   Clear
4:54 PM 39.0 °F 31.8 °F 24.1 °F 55% 30.18 in 10.0 mi NW 11.5 mph - N/A   Clear
5:54 PM 35.1 °F 29.3 °F 24.1 °F 64% 30.21 in 10.0 mi WNW 6.9 mph - N/A   Clear
6:54 PM 33.1 °F 27.7 °F 24.1 °F 70% 30.23 in 10.0 mi WNW 5.8 mph - N/A   Clear
7:54 PM 30.9 °F 25.2 °F 24.1 °F 76% 30.23 in 10.0 mi West 5.8 mph - N/A   Clear
8:54 PM 28.9 °F 25.2 °F 23.0 °F 78% 30.24 in 10.0 mi West 3.5 mph - N/A   Clear
9:54 PM 28.0 °F - 23.0 °F 81% 30.26 in 10.0 mi Calm Calm - N/A   Clear
10:54 PM 27.0 °F 23.0 °F 23.0 °F 85% 30.26 in 10.0 mi SW 3.5 mph - N/A   Clear
11:54 PM 26.1 °F 21.9 °F 23.0 °F 88% 30.26 in 10.0 mi SW 3.5 mph - N/A   Clear